Baltimore Martin, MD

3:56 PM EST on December 12, 2017 (GMT -0500)
Martin State

Weather History for KMTN - October, 2013

Change the Weather History Date:

Monday, October 7, 2013

  Actual Average Record
Temperature  
Mean Temperature 67 °F -  
Max Temperature 77 °F 66 °F 91 °F (2007)
Min Temperature 57 °F 50 °F 41 °F (1999)
Cooling Degree Days 2    
Growing Degree Days 17 (Base 50)    
Moisture  
Dew Point 65 °F    
Average Humidity 90    
Maximum Humidity 100    
Minimum Humidity 72    
Precipitation  
Precipitation 0.00 in - - ()
Sea Level Pressure  
Sea Level Pressure 29.93 in    
Wind  
Wind Speed 12 mph (SSE)    
Max Wind Speed 21 mph    
Max Gust Speed 29 mph    
Visibility 9 miles    
Events Rain    
Averages and records for this station are not official NWS values.
T = Trace of Precipitation, MM = Missing Value Source: NWS Daily Summary

Daily Weather History Graph

Daily Weather History Graph

Search for Another Location

Airport or City:

Trip Planner

Search our weather history database for the weather conditions in past years. The results will help you decide how hot, cold, wet, or windy it might be!

Date:

Astronomy

Oct. 07, 2013 Rise Set
Actual Time 7:07 AM EDT 6:38 PM EDT
Civil Twilight 6:40 AM EDT 7:05 PM EDT
Nautical Twilight 6:09 AM EDT 7:36 PM EDT
Astronomical Twilight 5:38 AM EDT 8:07 PM EDT
Moon 9:54 AM EDT (10/7) 8:22 PM EDT (10/7)
Length of Visible Light 12h 24m
Length of Day
11h 30m
Waxing Crescent, 8% of the Moon is Illuminated
Oct 7
Waxing Crescent
Oct 11
First Quarter
Oct 18
Full
Oct 26
Last Quarter
Nov 3
New

Hourly Weather History & Observations

Time (EDT) Temp. Dew Point Humidity Pressure Visibility Wind Dir Wind Speed Gust Speed Precip Events Conditions
12:03 AM 73.4 °F 69.8 °F 88% 29.97 in 10.0 mi SE 16.1 mph 21.9 mph N/A   Clear
12:21 AM 73.4 °F 69.8 °F 88% 29.97 in 10.0 mi SE 16.1 mph 21.9 mph N/A   Scattered Clouds
12:42 AM 73.4 °F 69.8 °F 88% 29.96 in 10.0 mi SE 15.0 mph 23.0 mph N/A   Scattered Clouds
1:03 AM 73.4 °F 69.8 °F 88% 29.96 in 10.0 mi SE 15.0 mph 19.6 mph N/A   Scattered Clouds
1:21 AM 73.4 °F 69.8 °F 88% 29.95 in 10.0 mi SE 13.8 mph 19.6 mph N/A   Overcast
1:42 AM 73.4 °F 69.8 °F 88% 29.96 in 10.0 mi SSE 9.2 mph - N/A   Overcast
2:21 AM 73.4 °F 69.8 °F 88% 29.94 in 10.0 mi SE 16.1 mph 21.9 mph N/A   Scattered Clouds
4:42 AM 71.6 °F 69.8 °F 94% 29.90 in 10.0 mi ESE 9.2 mph - N/A   Overcast
5:03 AM 71.6 °F 69.8 °F 94% 29.90 in 10.0 mi ESE 11.5 mph - N/A   Overcast
5:21 AM 71.6 °F 69.8 °F 94% 29.90 in 10.0 mi SE 12.7 mph 18.4 mph N/A   Mostly Cloudy
5:27 AM 71.6 °F 69.8 °F 94% 29.90 in 10.0 mi SE 10.4 mph - N/A   Mostly Cloudy
6:50 AM 73.4 °F 71.6 °F 94% 29.88 in 5.0 mi SE 13.8 mph - N/A   Overcast
7:55 AM 73.4 °F 71.6 °F 94% 29.86 in 7.0 mi SE 12.7 mph - N/A   Overcast
8:45 AM 73.4 °F 71.6 °F 94% 29.85 in 7.0 mi SE 13.8 mph - N/A   Overcast
9:55 AM 75.2 °F 73.4 °F 94% 29.84 in 6.0 mi SSE 20.7 mph - N/A Rain Light Rain
10:45 AM 75.2 °F 73.4 °F 94% 29.82 in 5.0 mi SSE 20.7 mph 28.8 mph N/A Rain Light Rain
11:50 AM 77.0 °F 73.4 °F 89% 29.81 in 10.0 mi SSE 20.7 mph 25.3 mph N/A   Overcast
12:45 PM 66.2 °F 66.2 °F 100% 29.85 in 3.0 mi SW 8.1 mph 20.7 mph N/A Rain Rain
1:45 PM 66.2 °F 66.2 °F 100% 29.83 in 7.0 mi South 6.9 mph - N/A Rain Rain
2:45 PM 64.4 °F 62.6 °F 94% 29.87 in 4.0 mi WNW 11.5 mph 25.3 mph N/A Rain Rain
3:45 PM 62.6 °F 60.8 °F 94% 29.90 in 10.0 mi West 5.8 mph - N/A   Mostly Cloudy
4:50 PM 62.6 °F 59.0 °F 88% 29.92 in 10.0 mi Calm Calm - N/A   Overcast
5:50 PM 62.6 °F 60.8 °F 94% 29.93 in 10.0 mi Calm Calm - N/A   Overcast
6:45 PM 62.6 °F 60.8 °F 94% 29.96 in 10.0 mi Calm Calm - N/A   Overcast
7:45 PM 62.6 °F 62.6 °F 100% 29.99 in 10.0 mi Calm Calm - N/A   Overcast
8:45 PM 60.8 °F 60.8 °F 100% 30.00 in 10.0 mi Calm Calm - N/A   Overcast
10:03 PM 59.0 °F 53.6 °F 82% 30.02 in 10.0 mi WNW 8.1 mph - N/A   Clear
10:24 PM 57.2 °F 53.6 °F 88% 30.02 in 10.0 mi WNW 6.9 mph - N/A   Clear
10:45 PM 57.2 °F 51.8 °F 82% 30.03 in 10.0 mi WNW 5.8 mph - N/A   Clear
11:06 PM 57.2 °F 50.0 °F 77% 30.04 in 10.0 mi WNW 3.5 mph - N/A   Clear
11:24 PM 57.2 °F 50.0 °F 77% 30.05 in 10.0 mi WNW 6.9 mph - N/A   Clear
11:45 PM 57.2 °F 48.2 °F 72% 30.06 in 10.0 mi WNW 3.5 mph - N/A   Clear